Time,TemperatureF,DewpointF,PressureIn,WindDirection,WindDirectionDegrees,WindSpeedMPH,WindSpeedGustMPH,Humidity,HourlyPrecipIn,Conditions,Clouds,dailyrainin,SoftwareType,DateUTC
2013-02-06 15:22:00,25.0,17.2,21.88,SW,225,4.0,-999.0,72,-99.99,,,0.00,meteohub,2013-02-06 21:22:00,
2013-02-06 15:27:00,25.0,17.2,21.88,South,180,8.0,-999.0,72,-99.99,,,0.00,meteohub,2013-02-06 21:27:00,
2013-02-06 15:32:00,25.0,17.2,21.89,SW,225,6.0,8.0,72,0.00,,,0.00,meteohub,2013-02-06 21:32:00,
2013-02-06 15:37:00,25.2,17.4,21.89,SW,225,8.0,8.0,72,0.00,,,0.00,meteohub,2013-02-06 21:37:00,
2013-02-06 15:42:00,25.2,17.4,21.89,South,180,4.0,8.0,72,0.00,,,0.00,meteohub,2013-02-06 21:42:00,
2013-02-06 15:47:00,25.5,17.4,21.89,South,180,5.0,8.0,71,0.00,,,0.00,meteohub,2013-02-06 21:47:00,
2013-02-06 15:52:00,25.5,17.4,21.90,WSW,248,4.0,8.0,71,0.00,,,0.00,meteohub,2013-02-06 21:52:00,
2013-02-06 15:57:00,25.5,17.1,21.90,South,180,4.0,8.0,70,0.00,,,0.00,meteohub,2013-02-06 21:57:00,
2013-02-06 16:02:00,25.5,17.1,21.90,South,180,3.0,7.0,70,0.00,,,0.00,meteohub,2013-02-06 22:02:00,
2013-02-06 16:07:00,25.5,17.1,21.91,South,180,3.0,7.0,70,0.00,,,0.00,meteohub,2013-02-06 22:07:00,
2013-02-06 16:12:00,25.2,16.7,21.91,South,180,6.0,7.0,70,0.00,,,0.00,meteohub,2013-02-06 22:12:00,
2013-02-06 16:17:00,25.0,16.5,21.91,SW,225,7.0,7.0,70,0.00,,,0.00,meteohub,2013-02-06 22:17:00,
2013-02-06 16:22:00,24.8,16.7,21.91,SSW,203,4.0,7.0,71,0.00,,,0.00,meteohub,2013-02-06 22:22:00,
2013-02-06 16:27:00,24.6,16.9,21.91,South,180,4.0,8.0,72,0.00,,,0.00,meteohub,2013-02-06 22:27:00,
2013-02-06 16:32:00,24.6,16.9,21.91,SE,135,2.0,8.0,72,0.00,,,0.00,meteohub,2013-02-06 22:32:00,
2013-02-06 16:37:00,24.6,16.9,21.91,South,180,3.0,8.0,72,0.00,,,0.00,meteohub,2013-02-06 22:37:00,
2013-02-06 16:42:00,24.4,16.7,21.91,SW,225,6.0,6.0,72,0.00,,,0.00,meteohub,2013-02-06 22:42:00,
2013-02-06 16:47:00,24.4,16.7,21.92,SSW,203,3.0,6.0,72,0.00,,,0.00,meteohub,2013-02-06 22:47:00,
2013-02-06 16:52:00,24.3,16.5,21.91,SW,225,5.0,6.0,72,0.00,,,0.00,meteohub,2013-02-06 22:52:00,
2013-02-06 16:57:00,24.3,16.5,21.92,WSW,248,3.0,6.0,72,0.00,,,0.00,meteohub,2013-02-06 22:57:00,
2013-02-06 17:02:00,24.3,16.5,21.92,South,180,4.0,6.0,72,0.00,,,0.00,meteohub,2013-02-06 23:02:00,
2013-02-06 17:07:00,24.3,16.5,21.92,SW,225,4.0,5.0,72,0.00,,,0.00,meteohub,2013-02-06 23:07:00,
2013-02-06 17:12:00,24.1,16.3,21.92,SW,225,4.0,5.0,72,0.00,,,0.00,meteohub,2013-02-06 23:12:00,
2013-02-06 17:17:00,24.1,16.3,21.92,West,270,8.0,8.0,72,0.00,,,0.00,meteohub,2013-02-06 23:17:00,
2013-02-06 17:21:00,24.1,16.3,21.92,South,180,3.0,8.0,72,0.00,,,0.00,meteohub,2013-02-06 23:21:00,
2013-02-06 17:26:00,24.1,16.3,21.92,South,180,6.0,8.0,72,0.00,,,0.00,meteohub,2013-02-06 23:26:00,
2013-02-06 17:31:00,24.1,16.0,21.92,SW,225,3.0,8.0,71,0.00,,,0.00,meteohub,2013-02-06 23:31:00,
2013-02-06 17:36:00,23.9,15.8,21.91,SW,225,3.0,7.0,71,0.00,,,0.00,meteohub,2013-02-06 23:36:00,
2013-02-06 17:41:00,23.9,15.8,21.91,South,180,4.0,7.0,71,0.00,,,0.00,meteohub,2013-02-06 23:41:00,
2013-02-06 17:47:00,23.9,15.8,21.90,SE,135,3.0,6.0,71,0.00,,,0.00,meteohub,2013-02-06 23:47:00,
2013-02-06 17:51:00,23.9,15.6,21.91,South,180,2.0,5.0,70,0.00,,,0.00,meteohub,2013-02-06 23:51:00,
2013-02-06 17:57:00,23.9,15.6,21.90,SE,135,2.0,5.0,70,0.00,,,0.00,meteohub,2013-02-06 23:57:00,
2013-02-06 18:02:00,23.9,15.6,21.91,South,180,3.0,5.0,70,0.00,,,0.00,meteohub,2013-02-07 00:02:00,
2013-02-06 18:07:00,23.9,15.6,21.91,South,180,3.0,5.0,70,0.00,,,0.00,meteohub,2013-02-07 00:07:00,
2013-02-06 18:12:00,23.9,15.6,21.92,South,180,4.0,4.0,70,0.00,,,0.00,meteohub,2013-02-07 00:12:00,
2013-02-06 18:17:00,23.7,15.4,21.92,SW,225,4.0,4.0,70,0.00,,,0.00,meteohub,2013-02-07 00:17:00,
2013-02-06 18:22:00,23.7,15.4,21.91,West,270,6.0,6.0,70,0.00,,,0.00,meteohub,2013-02-07 00:22:00,
2013-02-06 18:27:00,23.7,15.4,21.92,SW,225,7.0,7.0,70,0.00,,,0.00,meteohub,2013-02-07 00:27:00,
2013-02-06 18:31:00,23.7,15.4,21.92,South,180,8.0,8.0,70,0.00,,,0.00,meteohub,2013-02-07 00:31:00,
2013-02-06 18:36:00,23.7,15.6,21.93,South,180,6.0,8.0,71,0.00,,,0.00,meteohub,2013-02-07 00:36:00,
2013-02-06 18:41:00,23.7,15.6,21.92,SW,225,4.0,8.0,71,0.00,,,0.00,meteohub,2013-02-07 00:41:00,
2013-02-06 18:47:00,23.5,15.4,21.93,South,180,8.0,8.0,71,0.00,,,0.00,meteohub,2013-02-07 00:47:00,
2013-02-06 18:52:00,23.5,15.8,21.93,South,180,2.0,11.0,72,0.00,,,0.00,meteohub,2013-02-07 00:52:00,
2013-02-06 18:57:00,23.4,16.0,21.94,South,180,4.0,11.0,73,0.00,,,0.00,meteohub,2013-02-07 00:57:00,
2013-02-06 19:02:00,23.4,16.7,21.94,South,180,4.0,11.0,75,0.00,,,0.00,meteohub,2013-02-07 01:02:00,
2013-02-06 19:07:00,23.4,16.9,21.94,South,180,6.0,10.0,76,0.00,,,0.00,meteohub,2013-02-07 01:07:00,
2013-02-06 19:11:00,23.4,17.2,21.94,SSE,158,2.0,7.0,77,0.00,,,0.00,meteohub,2013-02-07 01:11:00,
2013-02-06 19:16:00,23.4,17.6,21.94,South,180,2.0,6.0,78,0.00,,,0.00,meteohub,2013-02-07 01:16:00,
2013-02-06 19:21:00,23.5,18.0,21.94,South,180,4.0,6.0,79,0.00,,,0.00,meteohub,2013-02-07 01:21:00,
2013-02-06 19:26:00,23.5,18.0,21.94,West,270,2.0,7.0,79,0.00,,,0.00,meteohub,2013-02-07 01:26:00,
2013-02-06 19:31:00,23.7,18.5,21.94,South,180,2.0,7.0,80,0.00,,,0.00,meteohub,2013-02-07 01:31:00,
2013-02-06 19:36:00,23.9,18.7,21.95,SE,135,2.0,6.0,80,0.00,,,0.00,meteohub,2013-02-07 01:36:00,
2013-02-06 19:41:00,23.9,18.7,21.95,South,180,3.0,4.0,80,0.00,,,0.00,meteohub,2013-02-07 01:41:00,
2013-02-06 19:46:00,23.9,18.7,21.95,South,180,4.0,5.0,80,0.00,,,0.00,meteohub,2013-02-07 01:46:00,
2013-02-06 19:51:00,24.1,18.9,21.95,SE,135,5.0,5.0,80,0.00,,,0.00,meteohub,2013-02-07 01:51:00,
2013-02-06 19:56:00,24.3,19.0,21.96,SE,135,6.0,7.0,80,0.00,,,0.00,meteohub,2013-02-07 01:56:00,
2013-02-06 20:01:00,24.3,19.2,21.96,South,180,4.0,8.0,81,0.00,,,0.00,meteohub,2013-02-07 02:01:00,
2013-02-06 20:06:00,24.3,19.2,21.96,South,180,4.0,8.0,81,0.00,,,0.00,meteohub,2013-02-07 02:06:00,
2013-02-06 20:11:00,24.4,19.4,21.97,SW,225,4.0,8.0,81,0.00,,,0.00,meteohub,2013-02-07 02:11:00,
2013-02-06 20:17:00,24.6,19.6,21.97,SE,135,2.0,8.0,81,0.00,,,0.00,meteohub,2013-02-07 02:17:00,
2013-02-06 20:21:00,24.8,19.6,21.96,South,180,4.0,8.0,80,0.00,,,0.00,meteohub,2013-02-07 02:21:00,
2013-02-06 20:27:00,25.0,19.8,21.96,SSW,203,4.0,6.0,80,0.00,,,0.00,meteohub,2013-02-07 02:27:00,
2013-02-06 20:32:00,25.0,19.8,21.95,SW,225,2.0,6.0,80,0.00,,,0.00,meteohub,2013-02-07 02:32:00,
2013-02-06 20:37:00,25.2,19.9,21.94,East,90,0.0,5.0,80,0.00,,,0.00,meteohub,2013-02-07 02:37:00,
2013-02-06 20:42:00,25.3,20.1,21.94,East,90,3.0,5.0,80,0.00,,,0.00,meteohub,2013-02-07 02:42:00,
2013-02-06 20:47:00,25.3,20.1,21.94,East,90,2.0,3.0,80,0.00,,,0.00,meteohub,2013-02-07 02:47:00,
2013-02-06 20:52:00,25.3,20.1,21.94,NW,315,1.0,3.0,80,0.00,,,0.00,meteohub,2013-02-07 02:52:00,
2013-02-06 20:57:00,25.3,20.1,21.93,West,270,0.0,3.0,80,0.00,,,0.00,meteohub,2013-02-07 02:57:00,
2013-02-06 21:02:00,25.3,20.1,21.94,South,180,2.0,3.0,80,0.00,,,0.00,meteohub,2013-02-07 03:02:00,
2013-02-06 21:07:00,25.3,20.1,21.95,SE,135,2.0,2.0,80,0.00,,,0.00,meteohub,2013-02-07 03:07:00,
2013-02-06 21:12:00,25.3,20.1,21.94,SE,135,1.0,2.0,80,0.00,,,0.00,meteohub,2013-02-07 03:12:00,
2013-02-06 21:17:00,25.3,20.1,21.94,SE,135,0.0,3.0,80,0.00,,,0.00,meteohub,2013-02-07 03:17:00,
2013-02-06 21:22:00,25.3,20.1,21.94,NW,315,0.0,3.0,80,0.00,,,0.00,meteohub,2013-02-07 03:22:00,
2013-02-06 21:27:00,25.3,20.1,21.94,NW,315,0.0,2.0,80,0.00,,,0.00,meteohub,2013-02-07 03:27:00,
2013-02-06 21:32:00,25.5,20.3,21.94,South,180,2.0,2.0,80,0.00,,,0.00,meteohub,2013-02-07 03:32:00,
2013-02-06 21:36:00,25.5,20.3,21.95,SE,135,2.0,2.0,80,0.00,,,0.00,meteohub,2013-02-07 03:36:00,
2013-02-06 21:41:00,25.5,20.3,21.94,SE,135,2.0,2.0,80,0.00,,,0.00,meteohub,2013-02-07 03:41:00,
2013-02-06 21:46:00,25.7,20.7,21.95,ESE,113,4.0,5.0,81,0.00,,,0.00,meteohub,2013-02-07 03:46:00,
2013-02-06 21:51:00,25.9,20.8,21.94,SE,135,4.0,6.0,81,0.00,,,0.00,meteohub,2013-02-07 03:51:00,
2013-02-06 21:56:00,25.9,20.8,21.94,East,90,4.0,6.0,81,0.00,,,0.00,meteohub,2013-02-07 03:56:00,
2013-02-06 22:01:00,25.9,20.8,21.94,SE,135,4.0,6.0,81,0.00,,,0.00,meteohub,2013-02-07 04:01:00,
2013-02-06 22:06:00,25.9,20.8,21.94,SE,135,4.0,5.0,81,0.00,,,0.00,meteohub,2013-02-07 04:06:00,
2013-02-06 22:11:00,25.9,20.8,21.94,SE,135,4.0,4.0,81,0.00,,,0.00,meteohub,2013-02-07 04:11:00,
2013-02-06 22:17:00,25.9,20.8,21.94,SE,135,2.0,4.0,81,0.00,,,0.00,meteohub,2013-02-07 04:17:00,
2013-02-06 22:21:00,25.9,20.8,21.94,SW,225,1.0,4.0,81,0.00,,,0.00,meteohub,2013-02-07 04:21:00,
2013-02-06 22:26:00,26.1,21.0,21.94,South,180,2.0,4.0,81,0.00,,,0.00,meteohub,2013-02-07 04:26:00,
2013-02-06 22:31:00,26.1,21.0,21.94,South,180,0.0,3.0,81,0.00,,,0.00,meteohub,2013-02-07 04:31:00,
2013-02-06 22:36:00,26.1,21.0,21.95,South,180,2.0,3.0,81,0.00,,,0.00,meteohub,2013-02-07 04:36:00,
2013-02-06 22:41:00,26.1,21.0,21.95,South,180,2.0,3.0,81,0.00,,,0.00,meteohub,2013-02-07 04:41:00,
2013-02-06 22:46:00,26.1,21.0,21.95,South,180,1.0,3.0,81,0.00,,,0.00,meteohub,2013-02-07 04:46:00,
2013-02-06 22:51:00,26.1,21.0,21.94,West,270,1.0,2.0,81,0.00,,,0.00,meteohub,2013-02-07 04:51:00,
2013-02-06 22:56:00,26.1,21.0,21.94,South,180,2.0,2.0,81,0.00,,,0.00,meteohub,2013-02-07 04:56:00,
2013-02-06 23:00:00,26.1,21.0,21.94,SE,135,2.0,2.0,81,0.00,,,0.00,meteohub,2013-02-07 05:00:00,
2013-02-06 23:02:00,26.1,21.0,21.94,SE,135,3.0,3.0,81,0.00,,,0.00,meteohub,2013-02-07 05:02:00,
2013-02-06 23:07:00,26.1,21.0,21.94,SE,135,2.0,3.0,81,0.00,,,0.00,meteohub,2013-02-07 05:07:00,
2013-02-06 23:12:00,26.1,21.0,21.94,SE,135,2.0,3.0,81,0.00,,,0.00,meteohub,2013-02-07 05:12:00,
2013-02-06 23:17:00,26.2,21.2,21.95,SW,225,1.0,3.0,81,0.00,,,0.00,meteohub,2013-02-07 05:17:00,
2013-02-06 23:22:00,26.2,21.2,21.94,SW,225,1.0,2.0,81,0.00,,,0.00,meteohub,2013-02-07 05:22:00,
2013-02-06 23:27:00,26.2,21.2,21.95,South,180,0.0,2.0,81,0.00,,,0.00,meteohub,2013-02-07 05:27:00,
2013-02-06 23:32:00,26.2,21.2,21.95,SW,225,2.0,2.0,81,0.00,,,0.00,meteohub,2013-02-07 05:32:00,
2013-02-06 23:37:00,26.2,21.6,21.95,South,180,0.0,2.0,82,0.00,,,0.00,meteohub,2013-02-07 05:37:00,
2013-02-06 23:42:00,26.2,21.6,21.95,South,180,1.0,2.0,82,0.00,,,0.00,meteohub,2013-02-07 05:42:00,
2013-02-06 23:47:00,26.4,21.7,21.95,South,180,1.0,2.0,82,0.00,,,0.00,meteohub,2013-02-07 05:47:00,
2013-02-06 23:52:00,26.4,21.7,21.95,SE,135,2.0,2.0,82,0.00,,,0.00,meteohub,2013-02-07 05:52:00,
2013-02-06 23:57:00,26.4,21.7,21.95,SE,135,1.0,2.0,82,0.00,,,0.00,meteohub,2013-02-07 05:57:00,